Time,TemperatureF,DewpointF,PressureIn,WindDirection,WindDirectionDegrees,WindSpeedMPH,WindSpeedGustMPH,Humidity,HourlyPrecipIn,Conditions,Clouds,dailyrainin,SoftwareType,DateUTC
2013-08-02 00:03:00,74.0,-99.9,-100.00,SSE,156,4.0,7.0,-999,0.00,,,-99.99,,2013-08-02 05:03:00,
2013-08-02 00:12:00,74.0,-99.9,-100.00,SSE,162,4.0,6.0,-999,0.00,,,-99.99,,2013-08-02 05:12:00,
2013-08-02 00:22:00,74.0,-99.9,-100.00,SSE,162,4.0,6.0,-999,0.00,,,-99.99,,2013-08-02 05:22:00,
2013-08-02 00:32:00,74.0,-99.9,-100.00,SSE,162,4.0,6.0,-999,0.00,,,-99.99,,2013-08-02 05:32:00,
2013-08-02 00:43:00,72.0,-99.9,-100.00,SSE,148,2.0,4.0,-999,0.00,,,-99.99,,2013-08-02 05:43:00,
2013-08-02 00:53:00,72.0,-99.9,-100.00,SSE,148,2.0,4.0,-999,0.00,,,-99.99,,2013-08-02 05:53:00,
2013-08-02 01:02:00,72.0,-99.9,-100.00,SSE,148,2.0,4.0,-999,0.00,,,-99.99,,2013-08-02 06:02:00,
2013-08-02 01:12:00,72.0,-99.9,-100.00,SSE,168,4.0,5.0,-999,0.00,,,-99.99,,2013-08-02 06:12:00,
2013-08-02 01:22:00,72.0,-99.9,-100.00,SSE,168,4.0,5.0,-999,0.00,,,-99.99,,2013-08-02 06:22:00,
2013-08-02 01:33:00,72.0,-99.9,-100.00,SSE,168,4.0,5.0,-999,0.00,,,-99.99,,2013-08-02 06:33:00,
2013-08-02 01:43:00,72.0,-99.9,-100.00,SSE,165,5.0,6.0,-999,0.00,,,-99.99,,2013-08-02 06:43:00,
2013-08-02 01:53:00,72.0,-99.9,-100.00,SSE,165,5.0,6.0,-999,0.00,,,-99.99,,2013-08-02 06:53:00,
2013-08-02 02:02:00,72.0,-99.9,-100.00,SSE,165,5.0,6.0,-999,0.00,,,-99.99,,2013-08-02 07:02:00,
2013-08-02 02:12:00,71.0,-99.9,-100.00,SSE,157,5.0,7.0,-999,0.00,,,-99.99,,2013-08-02 07:12:00,
2013-08-02 02:23:00,71.0,-99.9,-100.00,SSE,157,5.0,7.0,-999,0.00,,,-99.99,,2013-08-02 07:23:00,
2013-08-02 02:33:00,71.0,-99.9,-100.00,SSE,157,5.0,7.0,-999,0.00,,,-99.99,,2013-08-02 07:33:00,
2013-08-02 02:44:00,71.0,-99.9,-100.00,SSE,161,3.0,4.0,-999,0.00,,,-99.99,,2013-08-02 07:44:00,
2013-08-02 02:53:00,71.0,-99.9,-100.00,SSE,161,3.0,4.0,-999,0.00,,,-99.99,,2013-08-02 07:53:00,
2013-08-02 03:02:00,71.0,-99.9,-100.00,SSE,161,3.0,4.0,-999,0.00,,,-99.99,,2013-08-02 08:02:00,
2013-08-02 03:12:00,72.0,-99.9,-100.00,South,172,5.0,7.0,-999,0.00,,,-99.99,,2013-08-02 08:12:00,
2013-08-02 03:22:00,72.0,-99.9,-100.00,South,172,5.0,7.0,-999,0.00,,,-99.99,,2013-08-02 08:22:00,
2013-08-02 03:33:00,72.0,-99.9,-100.00,South,172,5.0,7.0,-999,0.00,,,-99.99,,2013-08-02 08:33:00,
2013-08-02 03:44:00,72.0,-99.9,-100.00,SSE,168,4.0,6.0,-999,0.00,,,-99.99,,2013-08-02 08:44:00,
2013-08-02 03:54:00,72.0,-99.9,-100.00,SSE,168,4.0,6.0,-999,0.00,,,-99.99,,2013-08-02 08:54:00,
2013-08-02 04:02:00,72.0,-99.9,-100.00,SSE,168,4.0,6.0,-999,0.00,,,-99.99,,2013-08-02 09:02:00,
2013-08-02 04:12:00,73.0,-99.9,-100.00,SSW,206,4.0,6.0,-999,0.00,,,-99.99,,2013-08-02 09:12:00,
2013-08-02 04:23:00,73.0,-99.9,-100.00,SSW,206,4.0,6.0,-999,0.00,,,-99.99,,2013-08-02 09:23:00,
2013-08-02 04:33:00,73.0,-99.9,-100.00,SSW,206,4.0,6.0,-999,0.00,,,-99.99,,2013-08-02 09:33:00,
2013-08-02 04:44:00,73.0,-99.9,-100.00,SW,217,5.0,9.0,-999,0.00,,,-99.99,,2013-08-02 09:44:00,
2013-08-02 04:53:00,73.0,-99.9,-100.00,SW,217,5.0,9.0,-999,0.00,,,-99.99,,2013-08-02 09:53:00,
2013-08-02 05:03:00,73.0,-99.9,-100.00,SW,217,5.0,9.0,-999,0.00,,,-99.99,,2013-08-02 10:03:00,
2013-08-02 05:10:00,73.0,-99.9,-100.00,SW,227,8.0,11.0,-999,0.00,,,-99.99,,2013-08-02 10:10:00,
2013-08-02 05:12:00,74.0,-99.9,-100.00,SW,220,5.0,8.0,-999,0.00,,,-99.99,,2013-08-02 10:12:00,
2013-08-02 05:23:00,74.0,-99.9,-100.00,SW,220,5.0,8.0,-999,0.00,,,-99.99,,2013-08-02 10:23:00,
2013-08-02 05:33:00,74.0,-99.9,-100.00,SW,220,5.0,8.0,-999,0.00,,,-99.99,,2013-08-02 10:33:00,
2013-08-02 05:44:00,73.0,-99.9,-100.00,SW,227,8.0,11.0,-999,0.00,,,-99.99,,2013-08-02 10:44:00,
2013-08-02 05:52:00,73.0,-99.9,-100.00,SW,227,8.0,11.0,-999,0.00,,,-99.99,,2013-08-02 10:52:00,
2013-08-02 06:02:00,73.0,-99.9,-100.00,SW,227,8.0,11.0,-999,0.00,,,-99.99,,2013-08-02 11:02:00,
2013-08-02 06:43:00,72.0,-99.9,-100.00,SW,224,5.0,8.0,-999,0.00,,,-99.99,,2013-08-02 11:43:00,
2013-08-02 06:52:00,72.0,-99.9,-100.00,SW,224,5.0,8.0,-999,0.00,,,-99.99,,2013-08-02 11:52:00,
2013-08-02 07:02:00,72.0,-99.9,-100.00,SW,224,5.0,8.0,-999,0.00,,,-99.99,,2013-08-02 12:02:00,
2013-08-02 07:10:00,72.0,-99.9,-100.00,West,263,6.0,8.0,-999,0.00,,,-99.99,,2013-08-02 12:10:00,
2013-08-02 07:12:00,72.0,-99.9,-100.00,WSW,243,6.0,8.0,-999,0.00,,,-99.99,,2013-08-02 12:12:00,
2013-08-02 07:22:00,72.0,-99.9,-100.00,WSW,243,6.0,8.0,-999,0.00,,,-99.99,,2013-08-02 12:22:00,
2013-08-02 07:33:00,72.0,-99.9,-100.00,WSW,243,6.0,8.0,-999,0.00,,,-99.99,,2013-08-02 12:33:00,
2013-08-02 07:43:00,72.0,-99.9,-100.00,West,263,6.0,8.0,-999,0.00,,,-99.99,,2013-08-02 12:43:00,
2013-08-02 07:52:00,72.0,-99.9,-100.00,West,263,6.0,8.0,-999,0.00,,,-99.99,,2013-08-02 12:52:00,
2013-08-02 08:03:00,72.0,-99.9,-100.00,West,263,6.0,8.0,-999,0.00,,,-99.99,,2013-08-02 13:03:00,
2013-08-02 08:10:00,73.0,-99.9,-100.00,West,277,7.0,9.0,-999,0.00,,,-99.99,,2013-08-02 13:10:00,
2013-08-02 08:43:00,73.0,-99.9,-100.00,West,277,7.0,9.0,-999,0.00,,,-99.99,,2013-08-02 13:43:00,
2013-08-02 08:53:00,73.0,-99.9,-100.00,West,277,7.0,9.0,-999,0.00,,,-99.99,,2013-08-02 13:53:00,
2013-08-02 09:02:00,73.0,-99.9,-100.00,West,277,7.0,9.0,-999,0.00,,,-99.99,,2013-08-02 14:02:00,
2013-08-02 09:43:00,77.0,-99.9,-100.00,West,269,4.0,5.0,-999,0.00,,,-99.99,,2013-08-02 14:43:00,
2013-08-02 09:53:00,77.0,-99.9,-100.00,West,269,4.0,5.0,-999,0.00,,,-99.99,,2013-08-02 14:53:00,
2013-08-02 10:03:00,77.0,-99.9,-100.00,West,269,4.0,5.0,-999,0.00,,,-99.99,,2013-08-02 15:03:00,
2013-08-02 10:12:00,77.0,-99.9,-100.00,NW,306,4.0,5.0,-999,0.00,,,-99.99,,2013-08-02 15:12:00,
2013-08-02 10:22:00,77.0,-99.9,-100.00,NW,306,4.0,5.0,-999,0.00,,,-99.99,,2013-08-02 15:22:00,
2013-08-02 10:32:00,77.0,-99.9,-100.00,NW,306,4.0,5.0,-999,0.00,,,-99.99,,2013-08-02 15:32:00,
2013-08-02 10:43:00,78.0,-99.9,-100.00,NW,308,5.0,7.0,-999,0.00,,,-99.99,,2013-08-02 15:43:00,
2013-08-02 10:52:00,78.0,-99.9,-100.00,NW,308,5.0,7.0,-999,0.00,,,-99.99,,2013-08-02 15:52:00,
2013-08-02 11:02:00,78.0,-99.9,-100.00,NW,308,5.0,7.0,-999,0.00,,,-99.99,,2013-08-02 16:02:00,
2013-08-02 11:12:00,83.0,-99.9,-100.00,West,267,3.0,5.0,-999,0.00,,,-99.99,,2013-08-02 16:12:00,
2013-08-02 11:22:00,83.0,-99.9,-100.00,West,267,3.0,5.0,-999,0.00,,,-99.99,,2013-08-02 16:22:00,
2013-08-02 11:32:00,83.0,-99.9,-100.00,West,267,3.0,5.0,-999,0.00,,,-99.99,,2013-08-02 16:32:00,
2013-08-02 11:43:00,85.0,-99.9,-100.00,WSW,247,3.0,6.0,-999,0.00,,,-99.99,,2013-08-02 16:43:00,
2013-08-02 11:53:00,85.0,-99.9,-100.00,WSW,247,3.0,6.0,-999,0.00,,,-99.99,,2013-08-02 16:53:00,
2013-08-02 12:02:00,85.0,-99.9,-100.00,WSW,247,3.0,6.0,-999,0.00,,,-99.99,,2013-08-02 17:02:00,
2013-08-02 12:12:00,86.0,-99.9,-100.00,West,275,3.0,5.0,-999,0.00,,,-99.99,,2013-08-02 17:12:00,
2013-08-02 12:22:00,86.0,-99.9,-100.00,West,275,3.0,5.0,-999,0.00,,,-99.99,,2013-08-02 17:22:00,
2013-08-02 12:35:00,86.0,-99.9,-100.00,West,275,3.0,5.0,-999,0.00,,,-99.99,,2013-08-02 17:35:00,
2013-08-02 12:43:00,85.0,-99.9,-100.00,WSW,251,6.0,10.0,-999,0.00,,,-99.99,,2013-08-02 17:43:00,
2013-08-02 12:52:00,85.0,-99.9,-100.00,WSW,251,6.0,10.0,-999,0.00,,,-99.99,,2013-08-02 17:52:00,
2013-08-02 13:03:00,85.0,-99.9,-100.00,WSW,251,6.0,10.0,-999,0.00,,,-99.99,,2013-08-02 18:03:00,
2013-08-02 13:12:00,83.0,-99.9,-100.00,WSW,253,7.0,9.0,-999,0.00,,,-99.99,,2013-08-02 18:12:00,
2013-08-02 13:22:00,83.0,-99.9,-100.00,WSW,253,7.0,9.0,-999,0.00,,,-99.99,,2013-08-02 18:22:00,
2013-08-02 13:32:00,83.0,-99.9,-100.00,WSW,253,7.0,9.0,-999,0.00,,,-99.99,,2013-08-02 18:32:00,
2013-08-02 13:43:00,84.0,-99.9,-100.00,WSW,247,8.0,10.0,-999,0.00,,,-99.99,,2013-08-02 18:43:00,
2013-08-02 13:52:00,84.0,-99.9,-100.00,WSW,247,8.0,10.0,-999,0.00,,,-99.99,,2013-08-02 18:52:00,
2013-08-02 14:03:00,84.0,-99.9,-100.00,WSW,247,8.0,10.0,-999,0.00,,,-99.99,,2013-08-02 19:03:00,
2013-08-02 14:12:00,85.0,-99.9,-100.00,WSW,251,7.0,14.0,-999,0.00,,,-99.99,,2013-08-02 19:12:00,
2013-08-02 14:22:00,85.0,-99.9,-100.00,WSW,251,7.0,14.0,-999,0.00,,,-99.99,,2013-08-02 19:22:00,
2013-08-02 14:33:00,85.0,-99.9,-100.00,WSW,251,7.0,14.0,-999,0.00,,,-99.99,,2013-08-02 19:33:00,
2013-08-02 14:43:00,84.0,-99.9,-100.00,West,263,9.0,13.0,-999,0.00,,,-99.99,,2013-08-02 19:43:00,
2013-08-02 14:52:00,84.0,-99.9,-100.00,West,263,9.0,13.0,-999,0.00,,,-99.99,,2013-08-02 19:52:00,
2013-08-02 15:02:00,84.0,-99.9,-100.00,West,263,9.0,13.0,-999,0.00,,,-99.99,,2013-08-02 20:02:00,
2013-08-02 15:12:00,83.0,-99.9,-100.00,West,269,8.0,11.0,-999,0.00,,,-99.99,,2013-08-02 20:12:00,
2013-08-02 15:23:00,83.0,-99.9,-100.00,West,269,8.0,11.0,-999,0.00,,,-99.99,,2013-08-02 20:23:00,
2013-08-02 15:33:00,83.0,-99.9,-100.00,West,269,8.0,11.0,-999,0.00,,,-99.99,,2013-08-02 20:33:00,
2013-08-02 15:43:00,83.0,-99.9,-100.00,West,281,8.0,14.0,-999,0.00,,,-99.99,,2013-08-02 20:43:00,
2013-08-02 15:52:00,83.0,-99.9,-100.00,West,281,8.0,14.0,-999,0.00,,,-99.99,,2013-08-02 20:52:00,
2013-08-02 16:03:00,83.0,-99.9,-100.00,West,281,8.0,14.0,-999,0.00,,,-99.99,,2013-08-02 21:03:00,
2013-08-02 16:12:00,85.0,-99.9,-100.00,West,262,5.0,8.0,-999,0.00,,,-99.99,,2013-08-02 21:12:00,
2013-08-02 16:22:00,85.0,-99.9,-100.00,West,262,5.0,8.0,-999,0.00,,,-99.99,,2013-08-02 21:22:00,
2013-08-02 16:33:00,85.0,-99.9,-100.00,West,262,5.0,8.0,-999,0.00,,,-99.99,,2013-08-02 21:33:00,
2013-08-02 16:43:00,82.0,-99.9,-100.00,WNW,291,6.0,8.0,-999,0.00,,,0.00,,2013-08-02 21:43:00,
2013-08-02 16:53:00,82.0,-99.9,-100.00,WNW,291,6.0,8.0,-999,0.00,,,0.00,,2013-08-02 21:53:00,
2013-08-02 17:03:00,82.0,-99.9,-100.00,WNW,291,6.0,8.0,-999,0.00,,,0.00,,2013-08-02 22:03:00,
2013-08-02 17:12:00,83.0,-99.9,-100.00,WNW,288,4.0,7.0,-999,0.00,,,0.00,,2013-08-02 22:12:00,
2013-08-02 17:22:00,83.0,-99.9,-100.00,WNW,288,4.0,7.0,-999,0.00,,,0.00,,2013-08-02 22:22:00,
2013-08-02 17:33:00,83.0,-99.9,-100.00,WNW,288,4.0,7.0,-999,0.00,,,0.00,,2013-08-02 22:33:00,
2013-08-02 17:43:00,82.0,-99.9,-100.00,WNW,297,5.0,7.0,-999,0.00,,,0.00,,2013-08-02 22:43:00,
2013-08-02 17:52:00,82.0,-99.9,-100.00,WNW,297,5.0,7.0,-999,0.00,,,0.00,,2013-08-02 22:52:00,
2013-08-02 18:03:00,82.0,-99.9,-100.00,WNW,297,5.0,7.0,-999,0.00,,,0.00,,2013-08-02 23:03:00,
2013-08-02 18:12:00,85.0,-99.9,-100.00,WNW,292,3.0,6.0,-999,0.00,,,0.00,,2013-08-02 23:12:00,
2013-08-02 18:22:00,85.0,-99.9,-100.00,WNW,292,3.0,6.0,-999,0.00,,,0.00,,2013-08-02 23:22:00,
2013-08-02 18:32:00,85.0,-99.9,-100.00,WNW,292,3.0,6.0,-999,0.00,,,0.00,,2013-08-02 23:32:00,
2013-08-02 18:44:00,81.0,-99.9,-100.00,WNW,302,6.0,8.0,-999,0.00,,,0.00,,2013-08-02 23:44:00,
2013-08-02 18:53:00,81.0,-99.9,-100.00,WNW,302,6.0,8.0,-999,0.00,,,0.00,,2013-08-02 23:53:00,
2013-08-02 19:02:00,81.0,-99.9,-100.00,WNW,302,6.0,8.0,-999,0.00,,,0.00,,2013-08-03 00:02:00,
2013-08-02 19:12:00,80.0,-99.9,-100.00,NW,305,2.0,3.0,-999,0.00,,,0.00,,2013-08-03 00:12:00,
2013-08-02 19:22:00,80.0,-99.9,-100.00,NW,305,2.0,3.0,-999,0.00,,,0.00,,2013-08-03 00:22:00,
2013-08-02 19:33:00,80.0,-99.9,-100.00,NW,305,2.0,3.0,-999,0.00,,,0.00,,2013-08-03 00:33:00,
2013-08-02 19:43:00,80.0,-99.9,-100.00,NNW,340,4.0,6.0,-999,0.00,,,0.00,,2013-08-03 00:43:00,
2013-08-02 19:52:00,80.0,-99.9,-100.00,NNW,340,4.0,6.0,-999,0.00,,,0.00,,2013-08-03 00:52:00,
2013-08-02 20:03:00,80.0,-99.9,-100.00,NNW,340,4.0,6.0,-999,0.00,,,0.00,,2013-08-03 01:03:00,
2013-08-02 20:12:00,78.0,-99.9,-100.00,NNW,345,4.0,8.0,-999,0.00,,,0.00,,2013-08-03 01:12:00,
2013-08-02 20:22:00,78.0,-99.9,-100.00,NNW,345,4.0,8.0,-999,0.00,,,0.00,,2013-08-03 01:22:00,
2013-08-02 20:33:00,78.0,-99.9,-100.00,NNW,345,4.0,8.0,-999,0.00,,,0.00,,2013-08-03 01:33:00,
2013-08-02 20:43:00,76.0,-99.9,-100.00,North,6,3.0,6.0,-999,0.00,,,0.00,,2013-08-03 01:43:00,
2013-08-02 20:53:00,76.0,-99.9,-100.00,North,6,3.0,6.0,-999,0.00,,,0.00,,2013-08-03 01:53:00,
2013-08-02 21:02:00,76.0,-99.9,-100.00,North,6,3.0,6.0,-999,0.00,,,0.00,,2013-08-03 02:02:00,
2013-08-02 21:12:00,74.0,-99.9,-100.00,NNE,25,7.0,11.0,-999,0.00,,,0.00,,2013-08-03 02:12:00,
2013-08-02 21:22:00,74.0,-99.9,-100.00,NNE,25,7.0,11.0,-999,0.00,,,0.00,,2013-08-03 02:22:00,
2013-08-02 21:32:00,74.0,-99.9,-100.00,NNE,25,7.0,11.0,-999,0.00,,,0.00,,2013-08-03 02:32:00,
2013-08-02 21:43:00,72.0,-99.9,-100.00,NNE,12,3.0,8.0,-999,0.00,,,0.00,,2013-08-03 02:43:00,
2013-08-02 21:52:00,72.0,-99.9,-100.00,NNE,12,3.0,8.0,-999,0.00,,,0.00,,2013-08-03 02:52:00,
2013-08-02 22:03:00,72.0,-99.9,-100.00,NNE,12,3.0,8.0,-999,0.00,,,0.00,,2013-08-03 03:03:00,
2013-08-02 22:10:00,71.0,-99.9,-100.00,North,357,3.0,5.0,-999,0.00,,,0.00,,2013-08-03 03:10:00,
2013-08-02 22:12:00,71.0,-99.9,-100.00,North,355,2.0,4.0,-999,0.00,,,-99.99,,2013-08-03 03:12:00,
2013-08-02 22:22:00,71.0,-99.9,-100.00,North,355,2.0,4.0,-999,0.00,,,-99.99,,2013-08-03 03:22:00,
2013-08-02 22:32:00,71.0,-99.9,-100.00,North,355,2.0,4.0,-999,0.00,,,-99.99,,2013-08-03 03:32:00,
2013-08-02 22:43:00,71.0,-99.9,-100.00,North,357,3.0,5.0,-999,0.00,,,0.00,,2013-08-03 03:43:00,
2013-08-02 22:53:00,71.0,-99.9,-100.00,North,357,3.0,5.0,-999,0.00,,,0.00,,2013-08-03 03:53:00,
2013-08-02 23:02:00,71.0,-99.9,-100.00,North,357,3.0,5.0,-999,0.00,,,0.00,,2013-08-03 04:02:00,
2013-08-02 23:43:00,69.0,-99.9,-100.00,ENE,70,0.0,0.0,-999,0.00,,,0.00,,2013-08-03 04:43:00,
2013-08-02 23:53:00,69.0,-99.9,-100.00,ENE,70,0.0,0.0,-999,0.00,,,0.00,,2013-08-03 04:53:00,